STARLINK-31943, 59878

Orbit data source: Space-Track

STARLINK-31943, 59878 is a payload satellite owned by SpaceX/Seattle (US) in LEO that was launched on Fri, 24 May 2024 UTC via an FALCON 9 launch vehicle from the Air Force Eastern Test Range (AFETR). Payload-class satellites include a variety of spacecraft equipped with specific instruments for various scientific and technological missions. These include communications satellites like Starlink; space stations such as the ISS; scientific satellites like the Hubble; Earth observation satellites from companies like Planet Labs, Umbra, and HawkEye 360; GPS; miniature CubeSats for education and research; and military/defense satellites.

Loading next visibility...
Identifier
59878, 2024-098W
Orbit
LEO
Country
Flag of USUS
Related business
Manufacturer
SpaceX/Seattle
Mission
Operational Commercial Communications
Bus & Motor
STARLINK V2M, Unknown motor
Mass
730 kg wet, ~700 kg dry
Launch date (UTC)
2024-05-24 (2 years ago)
Launch vehicle
FALCON 9
Launch site
Air Force Eastern Test Range (AFETR)
Object type
Payload
Rocket body
Debris
Shape & HBR
Box + 2 Pan, 17.7 m
Radar Cross Section
33.884 m², Large (>1 m²)

Expand to show TLE details & history
Last TLE update: 2 days ago

TLE from 2 days ago
0 STARLINK-31943
1 59878U 24098W   26171.01588336  .00087125  00000-0  18060-2 0  9991
2 59878  42.9973  55.9310 0018135 227.5223 132.4102 15.44578823116892
Epoch: 2026-06-20T00:22Z
TLE epoch observation values (Epoch: 2026-06-20T00:22:52.322Z)
Latitude
-0.00005°
Longitude
141.97637°
Altitude
440.73 km
Speed
7.645 km/s
True Right ascension
03h 43m 43s
True Declination
0° 00' 00"
Sunlit
Object was in daylight at epoch
Visualization orbit readout
Latitude
Unknown
Longitude
Unknown
Altitude
Unknown
Speed
Unknown
Apparent Right ascension
Unknown
Apparent Declination
Unknown
Sunlit
N/A
Visualization observer readout
Local Sidereal Time
21:30:47
Azimuth
Unknown
Elevation
Unknown
Doppler factor
Unknown
Orbital elements
Apogee altitude
446.931 km
Perigee altitude
422.221 km
Semi-major axis
6,812.713 km
Eccentricity
0.00181
Inclination
42.9973°
RAAN
55.931°
Arg. of periapsis
227.5223°
True anomaly
132.5634°
Mean anomaly
132.4102°
Eccentric anomaly
132.48682°
Mean motion
3.85978 °/min
Orbital period
93.27 mins
BSTAR
0.001806
Loading maneuver chart data...
Computing Atmospheric mass density...
Loading historical data...
Loading historical data...
Loading historical data...
Loading historical data...
Loading historical data...
Loading historical data...
Loading historical data...

Documentation

Showing up to 5 results
|